Weather History for Honolulu, HI

Change the Weather History Date:

Wednesday, April 24, 2013

  Actual Average Record
Temperature  
Mean Temperature 76 °F 76 °F  
Max Temperature 82 °F 83 °F 89 °F (1996)
Min Temperature 70 °F 70 °F 60 °F (1979)
Degree Days  
Heating Degree Days 0 0  
Month to date heating degree days 0 0  
Since 1 July heating degree days 0 0  
Cooling Degree Days 11 11  
Month to date cooling degree days 257 264  
Year to date cooling degree days 1012 1039  
Growing Degree Days 26 (Base 50)    
Moisture  
Dew Point 68 °F    
Average Humidity 80    
Maximum Humidity 97    
Minimum Humidity 62    
Precipitation  
Precipitation 0.13 in 0.01 in 0.60 in (1971)
Month to date precipitation 1.75 0.54  
Year to date precipitation 7.77 6.86  
Snow  
Snow 0.00 in - - ()
Month to date snowfall 0.0  
Since 1 July snowfall 0.0  
Snow Depth 0.00 in    
Sea Level Pressure  
Sea Level Pressure 30.05 in    
Wind  
Wind Speed 7 mph (ENE)    
Max Wind Speed 15 mph    
Max Gust Speed 17 mph    
Visibility 8 miles    
Events Rain    
T = Trace of Precipitation, MM = Missing Value Source: NWS Daily Summary

Daily Weather History Graph

Daily Weather History Graph

Search for Another Location

Airport:

Trip Planner

Search our weather history database for the weather conditions in past years. The results will help you decide how hot, cold, wet, or windy it might be!

Date:

Astronomy

Apr. 24, 2013 Rise Set
Actual Time 6:05 AM HST 6:54 PM HST
Civil Twilight 5:42 AM HST 7:17 PM HST
Nautical Twilight 5:15 AM HST 7:44 PM HST
Astronomical Twilight 4:47 AM HST 8:12 PM HST
Moon 6:13 PM HST (4/24) 5:09 AM HST (4/24)
Length of Visible Light 13h 35m
Length of Day
12h 49m
Waxing Gibbous, 99% of the Moon is Illuminated
Apr 24
Waxing Gibbous
Apr 25
Full
May 2
Last Quarter
May 9
New
May 17
First Quarter

Hourly Weather History & Observations

Time (HST) Temp. Heat Index Dew Point Humidity Pressure Visibility Wind Dir Wind Speed Gust Speed Precip Events Conditions
12:53 AM 71.1 °F - 68.0 °F 90% 30.06 in 3.0 mi ESE 5.8 mph - 0.00 in Rain Light Rain
1:02 AM 71.6 °F - 68.0 °F 88% 30.06 in 3.0 mi East 4.6 mph - 0.00 in Rain Light Rain
1:06 AM 71.6 °F - 68.0 °F 88% 30.06 in 5.0 mi East 5.8 mph - 0.00 in   Overcast
1:53 AM 71.1 °F - 68.0 °F 90% 30.04 in 7.0 mi East 5.8 mph - 0.00 in Rain Light Rain
2:00 AM 71.6 °F - 69.8 °F 94% 30.04 in 6.0 mi ENE 5.8 mph - 0.00 in Rain Light Rain
2:18 AM 71.6 °F - 68.0 °F 88% 30.04 in 6.0 mi ENE 4.6 mph - 0.00 in Rain Light Rain
2:53 AM 71.1 °F - 68.0 °F 90% 30.03 in 6.0 mi NNE 4.6 mph - 0.01 in Rain Light Rain
3:53 AM 70.0 °F - 68.0 °F 93% 30.02 in 3.0 mi North 6.9 mph - 0.03 in Rain Rain
4:12 AM 71.6 °F - 68.0 °F 88% 30.02 in 6.0 mi North 6.9 mph - 0.02 in Rain Light Rain
4:53 AM 70.0 °F - 68.0 °F 93% 30.03 in 7.0 mi NNE 9.2 mph - 0.03 in Rain Light Rain
5:53 AM 70.0 °F - 66.9 °F 90% 30.05 in 10.0 mi NNE 5.8 mph - 0.05 in Rain Light Rain
6:53 AM 71.1 °F - 66.9 °F 87% 30.08 in 10.0 mi Calm Calm - 0.00 in Rain Light Rain
7:53 AM 72.0 °F - 68.0 °F 87% 30.08 in 10.0 mi NNE 3.5 mph - 0.01 in   Mostly Cloudy
8:53 AM 75.9 °F - 66.9 °F 74% 30.09 in 10.0 mi East 5.8 mph - N/A   Scattered Clouds
9:53 AM 78.1 °F - 66.9 °F 68% 30.10 in 10.0 mi ESE 5.8 mph - N/A   Scattered Clouds
10:53 AM 80.1 °F 82.3 °F 66.9 °F 64% 30.08 in 10.0 mi SSW 4.6 mph - N/A   Scattered Clouds
11:53 AM 80.1 °F 82.3 °F 66.9 °F 64% 30.06 in 10.0 mi SSW 8.1 mph - N/A   Scattered Clouds
12:53 PM 81.0 °F 83.3 °F 66.9 °F 62% 30.04 in 10.0 mi South 9.2 mph - N/A   Scattered Clouds
1:53 PM 81.0 °F 83.8 °F 68.0 °F 65% 30.02 in 10.0 mi SW 11.5 mph - N/A   Scattered Clouds
2:53 PM 79.0 °F - 68.0 °F 69% 30.01 in 10.0 mi WSW 9.2 mph - N/A   Mostly Cloudy
3:53 PM 79.0 °F - 66.9 °F 66% 30.01 in 10.0 mi WSW 8.1 mph - 0.00 in Rain Light Rain
4:53 PM 79.0 °F - 68.0 °F 69% 30.01 in 10.0 mi SSW 5.8 mph - 0.00 in   Mostly Cloudy
5:53 PM 78.1 °F - 66.0 °F 66% 30.02 in 10.0 mi ENE 9.2 mph - N/A   Mostly Cloudy
6:53 PM 75.0 °F - 69.1 °F 82% 30.05 in 7.0 mi ENE 8.1 mph - 0.00 in Rain Light Rain
7:53 PM 75.0 °F - 69.1 °F 82% 30.06 in 10.0 mi North 3.5 mph - 0.00 in   Overcast
8:53 PM 75.9 °F - 69.1 °F 79% 30.09 in 10.0 mi NNE 3.5 mph - N/A   Overcast
9:53 PM 75.0 °F - 68.0 °F 79% 30.09 in 10.0 mi North 4.6 mph - N/A   Mostly Cloudy
10:53 PM 75.0 °F - 68.0 °F 79% 30.09 in 10.0 mi North 5.8 mph - N/A   Mostly Cloudy
11:53 PM 75.0 °F - 66.0 °F 73% 30.07 in 10.0 mi ENE 5.8 mph - N/A   Mostly Cloudy